VOI559 MMGL-MMMX

Flight info

Callsign VOI559
Flight time 0h 51m
Altitude 37000
Route EMIRI1B EMIRI UT119 ESPOS ESPOS3A
Aircraft A20N/M-SDE2E3FGHIRWXY/LB1

Departure

Time 2026-05-06 01:54
Airport Guadalajara International Airport (MMGL)

Arrival

Time 2026-05-06 02:46
Airport Mexico City Benito Juárez International Airport (MMMX)
Time Latitude Longitude Altitude Speed Heading
2026-05-06 01:30 20.52526 -103.30386 5029 ft 0 kts 11°
2026-05-06 01:42 20.52523 -103.30386 5029 ft 1 kts 11°
2026-05-06 01:42 20.52512 -103.30389 5029 ft 1 kts 11°
2026-05-06 01:45 20.52511 -103.30389 5029 ft 0 kts 11°
2026-05-06 01:45 20.52505 -103.30390 5029 ft 1 kts 30°
2026-05-06 01:46 20.52495 -103.30397 5027 ft 2 kts 24°
2026-05-06 01:46 20.52481 -103.30401 5029 ft 2 kts 21°
2026-05-06 01:46 20.52469 -103.30410 5027 ft 2 kts 62°
2026-05-06 01:46 20.52465 -103.30421 5029 ft 0 kts 94°
2026-05-06 01:47 20.52462 -103.30403 5027 ft 7 kts 101°
2026-05-06 01:47 20.52442 -103.30334 5029 ft 12 kts 108°
2026-05-06 01:48 20.52414 -103.30244 5029 ft 13 kts 106°
2026-05-06 01:48 20.52388 -103.30144 5028 ft 14 kts 108°
2026-05-06 01:48 20.52357 -103.30047 5028 ft 12 kts 109°
2026-05-06 01:48 20.52305 -103.30027 5029 ft 9 kts 190°
2026-05-06 01:49 20.52276 -103.30037 5029 ft 0 kts 202°
2026-05-06 01:49 20.52258 -103.30045 5028 ft 7 kts 199°
2026-05-06 01:50 20.52194 -103.30062 5028 ft 11 kts 166°
2026-05-06 01:50 20.52152 -103.29993 5028 ft 13 kts 114°
2026-05-06 01:50 20.52111 -103.29897 5028 ft 16 kts 115°
2026-05-06 01:50 20.52063 -103.29783 5029 ft 18 kts 113°
2026-05-06 01:51 20.52008 -103.29653 5029 ft 20 kts 113°
2026-05-06 01:51 20.51970 -103.29565 5027 ft 0 kts 118°
2026-05-06 01:51 20.51964 -103.29553 5029 ft 4 kts 121°
2026-05-06 01:51 20.51927 -103.29533 5030 ft 4 kts 189°
2026-05-06 01:52 20.51910 -103.29540 5030 ft 0 kts 204°
2026-05-06 01:53 20.51902 -103.29544 5026 ft 4 kts 205°
2026-05-06 01:53 20.51835 -103.29581 5030 ft 15 kts 224°
2026-05-06 01:53 20.51897 -103.29794 5029 ft 63 kts 293°
2026-05-06 01:54 20.52162 -103.30431 5025 ft 122 kts 294°
2026-05-06 01:54 20.52572 -103.31416 5056 ft 164 kts 294°
2026-05-06 01:54 20.53044 -103.32494 5838 ft 162 kts 294°
2026-05-06 01:54 20.53513 -103.33598 6350 ft 165 kts 294°
2026-05-06 01:55 20.53987 -103.34712 6934 ft 166 kts 295°
2026-05-06 01:55 20.54490 -103.35880 7276 ft 181 kts 294°
2026-05-06 01:55 20.55030 -103.37166 7632 ft 200 kts 293°
2026-05-06 01:55 20.55286 -103.38714 7869 ft 229 kts 264°
2026-05-06 01:56 20.54668 -103.40361 8260 ft 255 kts 235°
2026-05-06 01:56 20.53237 -103.41635 8631 ft 284 kts 208°
2026-05-06 01:56 20.51282 -103.42109 9340 ft 296 kts 181°
2026-05-06 01:56 20.49303 -103.41635 10252 ft 300 kts 157°
2026-05-06 01:57 20.47559 -103.40311 10709 ft 322 kts 134°
2026-05-06 01:57 20.46314 -103.38218 10966 ft 349 kts 112°
2026-05-06 01:57 20.45698 -103.35673 11564 ft 356 kts 104°
2026-05-06 01:57 20.44967 -103.33157 12462 ft 354 kts 114°
2026-05-06 01:58 20.43849 -103.30832 13381 ft 352 kts 123°
2026-05-06 01:58 20.42437 -103.28695 14162 ft 354 kts 129°
2026-05-06 01:58 20.40850 -103.26670 14773 ft 359 kts 133°
2026-05-06 01:58 20.39172 -103.24684 15393 ft 363 kts 134°
2026-05-06 01:59 20.37450 -103.22693 16035 ft 367 kts 134°
2026-05-06 01:59 20.35830 -103.20823 16626 ft 370 kts 134°
2026-05-06 01:59 20.34081 -103.18796 17251 ft 373 kts 134°
2026-05-06 01:59 20.32357 -103.16789 17911 ft 375 kts 134°
2026-05-06 02:00 20.30587 -103.14723 18540 ft 377 kts 134°
2026-05-06 02:00 20.28814 -103.12652 19107 ft 379 kts 134°
2026-05-06 02:00 20.27031 -103.10571 19663 ft 382 kts 134°
2026-05-06 02:00 20.25236 -103.08475 20252 ft 384 kts 134°
2026-05-06 02:01 20.23433 -103.06371 20843 ft 385 kts 135°
2026-05-06 02:01 20.21644 -103.04284 21421 ft 388 kts 135°
2026-05-06 02:01 20.19821 -103.02159 22014 ft 390 kts 135°
2026-05-06 02:01 20.17983 -103.00016 22571 ft 393 kts 135°
2026-05-06 02:02 20.16134 -102.97863 22772 ft 395 kts 135°
2026-05-06 02:02 20.14282 -102.95706 22823 ft 394 kts 135°
2026-05-06 02:02 20.12434 -102.93554 22830 ft 394 kts 135°
2026-05-06 02:02 20.10584 -102.91401 22823 ft 394 kts 135°
2026-05-06 02:03 20.08729 -102.89244 22825 ft 395 kts 135°
2026-05-06 02:03 20.06873 -102.87087 22851 ft 397 kts 135°
2026-05-06 02:03 20.05004 -102.84915 23374 ft 398 kts 135°
2026-05-06 02:03 20.03129 -102.82738 23865 ft 401 kts 135°
2026-05-06 02:04 20.01232 -102.80535 24251 ft 406 kts 135°
2026-05-06 02:04 19.99316 -102.78311 24684 ft 409 kts 135°
2026-05-06 02:04 19.97383 -102.76069 25083 ft 413 kts 135°
2026-05-06 02:04 19.95432 -102.73804 25484 ft 417 kts 135°
2026-05-06 02:05 19.93458 -102.71515 25868 ft 421 kts 135°
2026-05-06 02:05 19.91472 -102.69213 26257 ft 424 kts 135°
2026-05-06 02:05 19.89467 -102.66889 26638 ft 428 kts 135°
2026-05-06 02:05 19.87444 -102.64546 27005 ft 432 kts 135°
2026-05-06 02:06 19.85405 -102.62184 27373 ft 436 kts 135°
2026-05-06 02:06 19.83357 -102.59799 27739 ft 440 kts 133°
2026-05-06 02:06 19.81469 -102.57208 28085 ft 445 kts 127°
2026-05-06 02:06 19.79860 -102.54376 28442 ft 451 kts 120°
2026-05-06 02:07 19.78545 -102.51323 28774 ft 457 kts 114°
2026-05-06 02:07 19.77361 -102.48181 29116 ft 460 kts 115°
2026-05-06 02:07 19.76169 -102.45055 29439 ft 463 kts 115°
2026-05-06 02:07 19.74954 -102.41880 29799 ft 466 kts 115°
2026-05-06 02:08 19.73725 -102.38680 30113 ft 469 kts 115°
2026-05-06 02:08 19.72490 -102.35463 30436 ft 472 kts 115°
2026-05-06 02:08 19.71229 -102.32180 30766 ft 475 kts 115°
2026-05-06 02:08 19.69999 -102.28980 31100 ft 477 kts 115°
2026-05-06 02:09 19.68728 -102.25674 31492 ft 477 kts 115°
2026-05-06 02:09 19.67490 -102.22459 31924 ft 477 kts 115°
2026-05-06 02:09 19.66231 -102.19189 32357 ft 477 kts 114°
2026-05-06 02:09 19.64974 -102.15925 32793 ft 478 kts 115°
2026-05-06 02:10 19.63718 -102.12668 33201 ft 478 kts 114°
2026-05-06 02:10 19.62459 -102.09406 33604 ft 478 kts 115°
2026-05-06 02:10 19.61196 -102.06141 34007 ft 478 kts 114°
2026-05-06 02:10 19.59937 -102.02885 34364 ft 477 kts 114°
2026-05-06 02:11 19.58682 -101.99639 34755 ft 475 kts 114°
2026-05-06 02:11 19.57438 -101.96413 35139 ft 473 kts 114°
2026-05-06 02:11 19.56193 -101.93185 35496 ft 471 kts 114°
2026-05-06 02:11 19.54955 -101.89981 35829 ft 470 kts 114°
2026-05-06 02:12 19.53717 -101.86782 36171 ft 468 kts 114°
2026-05-06 02:12 19.52479 -101.83588 36513 ft 467 kts 114°
2026-05-06 02:12 19.51247 -101.80415 36832 ft 466 kts 114°
2026-05-06 02:12 19.50012 -101.77237 36955 ft 464 kts 114°
2026-05-06 02:13 19.47560 -101.70928 36927 ft 463 kts 114°
2026-05-06 02:13 19.45105 -101.64617 36885 ft 463 kts 114°
2026-05-06 02:14 19.42644 -101.58299 36874 ft 463 kts 114°
2026-05-06 02:14 19.40200 -101.52031 36867 ft 463 kts 114°
2026-05-06 02:15 19.37741 -101.45731 36861 ft 463 kts 114°
2026-05-06 02:15 19.35278 -101.39430 36846 ft 463 kts 114°
2026-05-06 02:16 19.32811 -101.33123 36829 ft 463 kts 114°
2026-05-06 02:16 19.30343 -101.26822 36787 ft 464 kts 114°
2026-05-06 02:17 19.29105 -101.23665 36522 ft 464 kts 114°
2026-05-06 02:17 19.27869 -101.20513 36262 ft 464 kts 114°
2026-05-06 02:17 19.26628 -101.17350 36014 ft 465 kts 114°
2026-05-06 02:17 19.25381 -101.14178 35766 ft 466 kts 114°
2026-05-06 02:18 19.24135 -101.11007 35513 ft 467 kts 114°
2026-05-06 02:18 19.22888 -101.07834 35266 ft 468 kts 114°
2026-05-06 02:18 19.21643 -101.04653 35037 ft 468 kts 114°
2026-05-06 02:18 19.20397 -101.01470 34793 ft 469 kts 114°
2026-05-06 02:19 19.19145 -100.98279 34553 ft 470 kts 114°
2026-05-06 02:19 19.17886 -100.95082 34326 ft 470 kts 114°
2026-05-06 02:19 19.16625 -100.91887 34090 ft 471 kts 114°
2026-05-06 02:19 19.15364 -100.88692 33860 ft 472 kts 114°
2026-05-06 02:20 19.12834 -100.82292 33350 ft 471 kts 114°
2026-05-06 02:20 19.11569 -100.79093 33087 ft 471 kts 114°
2026-05-06 02:20 19.10322 -100.75942 32837 ft 470 kts 114°
2026-05-06 02:21 19.09045 -100.72717 32583 ft 470 kts 115°
2026-05-06 02:21 19.07781 -100.69527 32329 ft 470 kts 115°
2026-05-06 02:21 19.06537 -100.66387 32100 ft 469 kts 115°
2026-05-06 02:21 19.05275 -100.63206 31855 ft 469 kts 115°
2026-05-06 02:22 19.04012 -100.60026 31618 ft 469 kts 115°
2026-05-06 02:22 19.02749 -100.56846 31377 ft 469 kts 115°
2026-05-06 02:22 19.01488 -100.53672 31139 ft 469 kts 115°
2026-05-06 02:22 19.00227 -100.50500 30909 ft 468 kts 115°
2026-05-06 02:23 18.98964 -100.47322 30680 ft 468 kts 115°
2026-05-06 02:23 18.97701 -100.44149 30452 ft 467 kts 115°
2026-05-06 02:23 18.96447 -100.40998 30235 ft 464 kts 115°
2026-05-06 02:23 18.95197 -100.37862 30014 ft 462 kts 115°
2026-05-06 02:24 18.93951 -100.34735 29770 ft 460 kts 115°
2026-05-06 02:24 18.92712 -100.31632 29509 ft 457 kts 115°
2026-05-06 02:24 18.91483 -100.28552 29255 ft 455 kts 115°
2026-05-06 02:24 18.90252 -100.25471 28997 ft 453 kts 115°
2026-05-06 02:25 18.89444 -100.23448 28831 ft 452 kts 115°
2026-05-06 02:25 18.87812 -100.19371 28495 ft 448 kts 115°
2026-05-06 02:25 18.86601 -100.16346 28256 ft 446 kts 115°
2026-05-06 02:25 18.85395 -100.13336 28000 ft 445 kts 115°
2026-05-06 02:26 18.84191 -100.10334 27756 ft 443 kts 115°
2026-05-06 02:26 18.82993 -100.07346 27512 ft 441 kts 115°
2026-05-06 02:26 18.82203 -100.05377 27344 ft 439 kts 115°
2026-05-06 02:26 18.81013 -100.02412 27093 ft 438 kts 115°
2026-05-06 02:27 18.79827 -99.99459 26878 ft 436 kts 115°
2026-05-06 02:27 18.78649 -99.96528 26633 ft 434 kts 115°
2026-05-06 02:27 18.77471 -99.93598 26390 ft 433 kts 114°
2026-05-06 02:27 18.75917 -99.89735 26077 ft 430 kts 114°
2026-05-06 02:28 18.75134 -99.87777 25918 ft 429 kts 113°
2026-05-06 02:28 18.74340 -99.84737 25683 ft 430 kts 99°
2026-05-06 02:28 18.74240 -99.81595 25456 ft 431 kts 86°
2026-05-06 02:28 18.74842 -99.78495 25231 ft 433 kts 73°
2026-05-06 02:29 18.76009 -99.75574 25011 ft 432 kts 67°
2026-05-06 02:29 18.77250 -99.72730 24791 ft 431 kts 67°
2026-05-06 02:29 18.78499 -99.69868 24569 ft 429 kts 67°
2026-05-06 02:29 18.79733 -99.67009 24350 ft 427 kts 67°
2026-05-06 02:30 18.80952 -99.64160 24040 ft 425 kts 67°
2026-05-06 02:30 18.82167 -99.61304 23381 ft 429 kts 67°
2026-05-06 02:30 18.83381 -99.58440 22753 ft 425 kts 67°
2026-05-06 02:30 18.84583 -99.55604 22140 ft 419 kts 67°
2026-05-06 02:31 18.85763 -99.52817 21532 ft 415 kts 68°
2026-05-06 02:31 18.86937 -99.50044 20929 ft 410 kts 68°
2026-05-06 02:31 18.88094 -99.47308 20310 ft 406 kts 67°
2026-05-06 02:31 18.89242 -99.44591 19702 ft 403 kts 67°
2026-05-06 02:32 18.90364 -99.41939 19489 ft 388 kts 67°
2026-05-06 02:32 18.91442 -99.39391 19361 ft 372 kts 67°
2026-05-06 02:32 18.92478 -99.36937 19234 ft 358 kts 67°
2026-05-06 02:32 18.93472 -99.34584 19130 ft 344 kts 67°
2026-05-06 02:33 18.94427 -99.32320 19021 ft 331 kts 68°
2026-05-06 02:33 18.95039 -99.30868 18958 ft 322 kts 68°
2026-05-06 02:34 18.95114 -99.23760 17940 ft 304 kts 125°
2026-05-06 02:34 18.93865 -99.21989 17697 ft 296 kts 126°
2026-05-06 02:34 18.92646 -99.20256 17643 ft 294 kts 125°
2026-05-06 02:34 18.91527 -99.18391 17570 ft 311 kts 111°
2026-05-06 02:35 18.91119 -99.16136 17536 ft 317 kts 88°
2026-05-06 02:35 18.91596 -99.13880 17502 ft 315 kts 66°
2026-05-06 02:35 18.92868 -99.12043 17433 ft 309 kts 42°
2026-05-06 02:35 18.94673 -99.10928 17287 ft 304 kts 22°
2026-05-06 02:36 18.96689 -99.10297 17039 ft 302 kts 17°
2026-05-06 02:36 18.98723 -99.09701 16763 ft 305 kts 19°
2026-05-06 02:36 19.00735 -99.08992 16408 ft 304 kts 22°
2026-05-06 02:36 19.02705 -99.08184 16045 ft 303 kts 24°
2026-05-06 02:37 19.04642 -99.07322 15685 ft 301 kts 25°
2026-05-06 02:37 19.06557 -99.06437 15321 ft 299 kts 25°
2026-05-06 02:37 19.08452 -99.05552 14971 ft 297 kts 26°
2026-05-06 02:37 19.10335 -99.04670 14731 ft 292 kts 25°
2026-05-06 02:38 19.12150 -99.03823 14667 ft 280 kts 25°
2026-05-06 02:38 19.13895 -99.03008 14567 ft 269 kts 25°
2026-05-06 02:38 19.15602 -99.02217 14303 ft 266 kts 23°
2026-05-06 02:38 19.17421 -99.01887 13977 ft 268 kts 356°
2026-05-06 02:39 19.19179 -99.02489 13650 ft 268 kts 328°
2026-05-06 02:39 19.20580 -99.03755 13462 ft 260 kts 316°
2026-05-06 02:39 19.21837 -99.05072 13225 ft 256 kts 316°
2026-05-06 02:39 19.23096 -99.06396 12908 ft 254 kts 316°
2026-05-06 02:40 19.24338 -99.07723 12591 ft 253 kts 311°
2026-05-06 02:40 19.25402 -99.09198 12331 ft 250 kts 307°
2026-05-06 02:40 19.26423 -99.10636 12246 ft 237 kts 307°
2026-05-06 02:40 19.27399 -99.11991 12107 ft 227 kts 308°
2026-05-06 02:41 19.28354 -99.13311 11840 ft 225 kts 308°
2026-05-06 02:41 19.29302 -99.14622 11540 ft 224 kts 308°
2026-05-06 02:41 19.30249 -99.15929 11251 ft 223 kts 308°
2026-05-06 02:41 19.31187 -99.17229 10974 ft 222 kts 308°
2026-05-06 02:42 19.32188 -99.18464 10665 ft 221 kts 321°
2026-05-06 02:42 19.33533 -99.19225 10366 ft 220 kts 346°
2026-05-06 02:42 19.35039 -99.19341 10070 ft 218 kts 10°
2026-05-06 02:42 19.36440 -99.18767 9713 ft 218 kts 37°
2026-05-06 02:43 19.37513 -99.17651 9429 ft 217 kts 53°
2026-05-06 02:43 19.38364 -99.16340 9250 ft 212 kts 59°
2026-05-06 02:43 19.39089 -99.15066 9058 ft 193 kts 61°
2026-05-06 02:43 19.39747 -99.13890 8865 ft 178 kts 61°
2026-05-06 02:44 19.40347 -99.12818 8619 ft 161 kts 62°
2026-05-06 02:44 19.40893 -99.11840 8322 ft 149 kts 62°
2026-05-06 02:44 19.41402 -99.10904 8063 ft 146 kts 61°
2026-05-06 02:44 19.41909 -99.09983 7770 ft 143 kts 60°
2026-05-06 02:45 19.42420 -99.09071 7528 ft 148 kts 59°
2026-05-06 02:45 19.42943 -99.08139 7339 ft 147 kts 59°
2026-05-06 02:45 19.43442 -99.07257 7302 ft 124 kts 59°
2026-05-06 02:45 19.43782 -99.06658 7303 ft 66 kts 59°
2026-05-06 02:46 19.43932 -99.06391 7302 ft 21 kts 59°
2026-05-06 02:46 19.43990 -99.06288 7301 ft 11 kts 56°
2026-05-06 02:46 19.44059 -99.06247 7301 ft 12 kts 24°
2026-05-06 02:46 19.44121 -99.06208 7302 ft 11 kts 27°
2026-05-06 02:47 19.44199 -99.06178 7302 ft 13 kts 16°
2026-05-06 02:47 19.44289 -99.06164 7303 ft 14 kts
2026-05-06 02:47 19.44382 -99.06189 7304 ft 14 kts 310°
2026-05-06 02:47 19.44413 -99.06267 7304 ft 7 kts 290°
2026-05-06 02:48 19.44417 -99.06313 7304 ft 3 kts 264°
2026-05-06 02:48 19.44405 -99.06352 7305 ft 7 kts 245°
2026-05-06 02:48 19.44374 -99.06409 7305 ft 10 kts 239°
2026-05-06 02:48 19.44333 -99.06481 7305 ft 12 kts 239°
2026-05-06 02:49 19.44285 -99.06566 7305 ft 15 kts 239°
2026-05-06 02:49 19.44229 -99.06663 7305 ft 16 kts 239°
2026-05-06 02:49 19.44180 -99.06751 7306 ft 12 kts 239°
2026-05-06 02:49 19.44133 -99.06835 7306 ft 15 kts 239°
2026-05-06 02:50 19.44077 -99.06936 7306 ft 17 kts 239°
2026-05-06 02:50 19.44015 -99.07047 7306 ft 18 kts 238°
2026-05-06 02:50 19.43954 -99.07154 7306 ft 17 kts 239°
2026-05-06 02:50 19.43890 -99.07267 7305 ft 19 kts 239°
2026-05-06 02:51 19.43821 -99.07388 7305 ft 20 kts 239°
2026-05-06 02:51 19.43749 -99.07517 7304 ft 21 kts 239°
2026-05-06 02:51 19.43688 -99.07627 7304 ft 17 kts 239°
2026-05-06 02:51 19.43628 -99.07733 7304 ft 16 kts 239°
2026-05-06 02:52 19.43601 -99.07805 7304 ft 8 kts 286°
2026-05-06 02:52 19.43625 -99.07862 7304 ft 8 kts 291°
2026-05-06 02:52 19.43638 -99.07897 7304 ft 1 kts 291°
2026-05-06 02:52 19.43640 -99.07900 7304 ft 0 kts 291°